Погода в Ужгороде

Поиск расширенной информации на нашем сайте:

Полезная информация:

Новости сайта



02.01.2020
Опубликован Долгосрочный прогноз погоды по городам России и ближнего зарубежья на январь 2020 года.
Карты: Прогноз на январь и февраль 2020 года, Сравнение прогнозируемой аномалии приземной температуры воздуха на январь 2020 года по разным моделям.




Погода в Ужгороде - сегодня

Время (UTC), дата Ветер
(°,м/с) 
Видим.   Явления Облачность Т
(°С)
Тd
(°С)
f(%) Тe
(°С)
Pmin
(гПа)
dP
(гПа)
Po
(мм)
O2
(г/м3)
Тmin Tmax R s Состояние
почвы
00 16.01.22 тихо ()   0300 м  туман  ?/?  
-5.3 -5.3 100 -5  1030  0.7  761  313           
03 16.01.22 010 (С) 0400 м  туман  ?/?  
[]
-5.2 -5.2 100 -5  1029.9  0.1  761  313           
06 16.01.22 020 (С) 0900 м  переохл. туман [диам. сложн. отлож. 5 мм]  ?/?  
-4.8 -4.8 100 -4  1029.5  -0.3  761  313  -5.5      равномерный
мокрый или
старый снег
100% 
09 16.01.22 тихо ()   3500 м  дымка{туман}  10/10 150 м 
[St]
-4.9 -5.2 98 -5  1029.9  0.4  761  313           
12 16.01.22 120 (ЮВ) 3800 м  дымка{туман}  10/10 210 м 
[St]
-3.6 -3.9 98 -5  1027.7  -2.1  759  311           
15 16.01.22 150 (ЮВ) 5000 м  дымка  10/10 210 м 
[St]
-3.1 -3.7 96 -4  1026.4  -1.3  758  310           
18 16.01.22 280 (З) 1100 м  дымка  10/10 100 м 
[St]
-3.6 -3.6 100 -3  1025.1  -1.3  757  310    -3       
21 16.01.22 тихо ()   1300 м  дымка  10/10 100 м 
[St]
-3.1 -3.1 100 -3  1023.9  -1.1  757  309           
00 17.01.22 тихо ()   2500 м  дымка  10/10 270 м 
[St]
-3.1 -3.1 100 -3  1022.5  -1.4  756  308           
03 17.01.22 280 (З) 1700 м  дымка  10/10 180 м 
[St]
-3 -3.3 98 -3  1020.7  -1.8  754  308           
06 17.01.22 200 (Ю) 1100 м  слаб. снег  10/8 60 м средняя 
[Frnb|As op]
-3.1 -3.3 99 -4  1020.1  -0.6  754  308  -3.6    0.2     
09 17.01.22 170 (Ю) 2400 м  дымка{снег, туман}  10/10 120 м 
[St]
-2.9 -3.2 98 -4  1017.6  -2.4  752  307           
12 17.01.22 140 (ЮВ) 3100 м  слаб. снег{туман}  10/8 210 м средняя 
[Frnb|As op]
-2.1 -3.8 88 -3  1013.1  -4.4  749  304      0.0     
15 17.01.22 360 (С) 0300 м  ливневой снег  ?/?  
[]
-1.3 -1.6 98 -4  1012.5  -0.6  748  303           
18 17.01.22 340 (С) 10 км  {ливн. осадки, снег}  8/6 1200 м средняя 
[Sc|Ac trans]
-1.4 -2.6 92 -1  1016.1  3.6  751  304    -1     
21 17.01.22 320 (СЗ) 10 км    4/4 1000 м 
[Sc]
+0.9 -4 70 -3  1018.7  2.6  753  303           
00 18.01.22 330 (СЗ) 10 км    4/3 1500 м средняя 
[Sc|Ac trans]
+0.7 -5.5 63 -3  1021.5  2.8  755  304           
03 18.01.22 310 (СЗ) 10 км    3/3 1500 м 
[Sc]
-0.4 -5.8 67 -3  1024.8  3.2  757  306           
06 18.01.22 330 (СЗ) 10 км    8/6 1470 м средняя 
[Sc|Ac trans]
+0.5 -6 62 -2  1026.3  1.5  758  306  -2.3      равномерный
сухой снег
100% 
09 18.01.22 310 (СЗ) 10 км    6/6 1200 м 
[Sc]
+1.1 -4.4 67 -2  1028.7  2.4  760  306           
12 18.01.22 300 (СЗ) 10 км    9/9 1020 м 
[Sc]
+1.8 -3.5 68 -1  1029.9  1.2  761  305           
15 18.01.22 320 (СЗ) 10 км  слаб. снег  9/9 1020 м 
[Sc]
+1.5 -3.5 69 -1  1031.5  1.6  762  306           
18 18.01.22 310 (СЗ) 10 км  слаб. снег  8/8 1300 м 
[Sc]
+1.2 -3.1 73 -1  1032.7  1.2  763  307    +1.8  0.0     
21 18.01.22 340 (С) 10 км  {снег}  9/9 1350 м 
[Sc]
+0 -3.9 75 +1  1034.7  1.9  765  309           
00 19.01.22 330 (СЗ) 10 км  {снег}  9/9 1200 м 
[Sc]
+0.2 -3.4 77 -1  1034.5  -0.2  765  308      0.0     
Время (UTC), дата Ветер
(°,м/с) 
Видим.   Явления Облачность Т
(°С)
Тd
(°С)
f(%) Тe
(°С)
Pmin
(гПа)
dP
(гПа)
Po
(мм)
O2
(г/м3)
Тmin Tmax R s Состояние
почвы

Для получения пояснительной информации подведите курсор к названию столбца.

ПОГОДА в Ужгороде - архив

Всё, что Вы хотите узнать о погоде в Ужгороде - удобно и подробно!

Выберите нужную дату (начиная с 1 января 2019* года) и нажмите кнопку "Найти".
Будут отображены архивные сводки погоды по пункту Ужгород, начиная с указанной даты.


Отображать данные в формате CSV (для использования в таблицах Excel)


Внимание! Наш архив погоды предназначен исключительно для личного некоммерческого использования в познавательных целях. Если Вам необходимы официальные справки о состоянии погоды (для производственных, юридических, коммерческих и т.п. целей), обращайтесь в органы Росгидромета.

*Примечание: данная дата относится к архиву по метеостанциям СССР (Россия, СНГ, Балтия).
Архив по метеостанциям Зарубежной Европы и Азии (кроме Китая) хранится 10 дней, по другим регионам земного шара (Китай, Африка, Америка, Австралия, Океания) - 1 день.

Ужгород - район местоположения метеостанции


Название, широта, долгота, высота метеостанции:
Ужгород 48.6°ш. 22.3°д. 124 м над ур. моря [Украина]

Дополнительная информация

В oтличие oт бoльшинства пoгoдных сайтoв мы публикуем пoдрoбную метеoинфoрмацию в детальнoм прoфессиoнальнoм фoрмате.

Характеристики температуры и влажнoсти вoздуха измеряются на высoте 2 м в тени вдали oт зданий и деревьев.
Скoрoсть ветра измеряется на высoте 10 м (на урoвне рoста челoвека скoрoсть ветра ниже в 1.5-2 раза). Если метеoстанция нахoдится в гoрoде или в лесу, тo скoрoсть ветра занижена на 2-4 м/с пo сравнению с oткрытым местoм. Скoрoсть ветра над акватoриями крупных рек и oзёр, а также на вершинах хoлмoв на 2-5 м/с выше, чем в oбычных услoвиях.
Атмoсфернoе давление в разных тoчках местнoсти мoжет значительнo oтличаться oт давления на метеoстанции, в зависимoсти oт услoвий рельефа (при пoдъёме на 10 м давление пoнижается примернo на 1 мм рт.ст.).